Location: Newark
(0.0900°N, 123.8300°E)
Time: 12:18:17
(UTC+00:00)

N. Korean satellite - Visible Passes

Search period start: 29 September 2020 00:00
Search period end: 09 October 2020 00:00
Orbit: 455 x 503 km, 97.2° (Epoch: 28 September)

Date Brightness Start Highest point End Pass type
(mag) Time Alt. Az. Time Alt. Az. Time Alt. Az.
29 Sep 6.5 21:04:07 10° N 21:07:33 61° W 21:10:58 10° SSW visible
30 Sep 7.9 20:38:17 10° NNE 20:41:35 41° E 20:44:50 10° S visible
01 Oct 9.8 20:13:31 10° ENE 20:15:35 15° E 20:17:39 10° SE visible
03 Oct 6.5 20:53:15 10° NNE 20:56:41 83° E 21:00:07 10° S visible
04 Oct 8.8 20:27:45 10° NE 20:30:41 26° E 20:33:37 10° SSE visible
07 Oct 7.5 20:42:25 10° NNE 20:45:44 50° E 20:49:04 10° S visible
08 Oct 9.6 20:17:21 10° ENE 20:19:43 18° E 20:22:05 10° SE visible
